This demonstration page uses our WeatherBlox Daily Observations layout. Learn more.

Left ArrowRight Arrow

41.55636, -103.73856

Hourly Observations for January 18, 2022

Temp ( °F °C ) Dew Point ( °F °C ) Humidity (%) Winds ( mph kmh ) Pressure ( in mb ) Visibility ( mi km ) Precip ( " mm )
12:58 am 00:58 Partly Cloudy 40 4.3 18 -7.8 41 41 WSW 7 11 29.80 1009 10 16 0.00 0.00
1:58 am 01:58 Clear 31 -0.4 19 -7 61 61 SW 10 17 29.81 1009 10 16 0.00 0.00
2:58 am 02:58 Partly Cloudy 33 0.3 19 -7.1 58 58 SW 10 17 29.80 1009 10 16 0.00 0.00
3:58 am 03:58 Clear 33 0.5 18 -8 53 53 WSW 7 11 29.80 1009 10 16 0.00 0.00
4:58 am 04:58 Mostly Clear 34 1.2 17 -8.4 49 49 WSW 7 11 29.80 1009 10 16 0.00 0.00
5:58 am 05:58 Mostly Cloudy 35 1.5 19 -7.2 53 53 WSW 9 15 29.81 1009 10 16 0.00 0.00
6:58 am 06:58 Mostly Cloudy 35 1.6 19 -7.4 52 52 W 10 17 29.82 1010 10 16 0.00 0.00
7:58 am 07:58 Mostly Cloudy 39 3.7 17 -8.4 41 41 W 15 24 29.81 1009 10 16 0.00 0.00
8:58 am 08:58 Mostly Cloudy 42 5.5 14 -10.2 32 32 WNW 17 28 29.81 1009 10 16 0.00 0.00
9:58 am 09:58 Sunny 44 6.4 13 -10.3 29 29 WNW 18 30 29.83 1010 10 16 0.00 0.00
10:58 am 10:58 Sunny 45 7.3 15 -9.6 29 29 WNW 13 20 29.84 1010 10 16 0.00 0.00
11:58 am 11:58 Sunny 50 9.8 14 -9.9 24 24 NNW 15 24 29.82 1010 10 16 0.00 0.00
12:58 pm 12:58 Sunny 48 9 15 -9.5 26 26 NNW 13 20 29.82 1010 10 16 0.00 0.00
1:58 pm 13:58 Partly Cloudy 49 9.3 18 -7.6 30 30 N 7 11 29.85 1011 10 16 0.00 0.00
2:58 pm 14:58 Partly Cloudy 50 9.8 20 -6.4 32 32 NNW 8 13 29.85 1011 10 16 0.00 0.00
3:58 pm 15:58 Mostly Cloudy 50 9.8 21 -6.2 32 32 NE 13 20 29.87 1012 10 16 0.00 0.00
4:58 pm 16:58 Mostly Cloudy 42 5.7 22 -5.6 44 44 NE 9 15 29.90 1013 10 16 0.00 0.00
5:58 pm 17:58 Mostly Cloudy 40 4.4 24 -4.7 52 52 NE 13 20 29.93 1014 10 16 0.00 0.00
6:58 pm 18:58 Partly Cloudy 34 1.3 25 -4.1 68 68 ENE 13 20 30.01 1016 10 16 0.00 0.00
7:58 pm 19:58 Mostly Clear 29 -1.7 24 -4.2 83 83 ENE 10 17 30.05 1018 10 16 0.00 0.00
8:58 pm 20:58 Mostly Cloudy 29 -1.4 26 -3.5 86 86 NE 7 11 30.09 1019 10 16 0.00 0.00
9:58 pm 21:58 Cloudy 27 -2.8 21 -5.9 79 79 ENE 14 22 30.11 1020 10 16 0.00 0.00
10:58 pm 22:58 Cloudy 25 -4 20 -6.8 81 81 E 12 19 30.14 1021 10 16 0.00 0.00
11:58 pm 23:58 Cloudy 23 -4.8 18 -7.6 81 81 NE 10 17 30.17 1022 10 16 0.00 0.00

Powered by AerisWeather